This demonstration page uses our WeatherBlox Daily Observations layout. Learn more.

Left ArrowRight Arrow

38.20091, -84.87328

Hourly Observations for April 30, 2016

Temp ( °F °C ) Dew Point ( °F °C ) Humidity (%) Winds ( mph kmh ) Pressure ( in mb ) Visibility ( mi km ) Precip ( " mm )
12:53 am 00:53 Cloudy 62 16.7 49 9.4 62 62 ENE 9 15 29.99 1016 10 16 0.00 0.00
1:53 am 01:53 Cloudy 61 16.1 51 10.6 70 70 E 13 20 29.99 1016 10 16 0.00 0.00
2:53 am 02:53 Cloudy 60 15.6 51 10.6 72 72 ENE 10 17 29.98 1015 10 16 0.00 0.00
3:53 am 03:53 Cloudy 59 15 51 10.6 75 75 ENE 9 15 29.97 1015 10 16 0.00 0.00
4:53 am 04:53 Cloudy 59 15 51 10.6 75 75 E 8 13 29.97 1015 10 16 0.00 0.00
5:53 am 05:53 Cloudy 59 15 50 10 72 72 ENE 10 17 29.96 1015 10 16 0.00 0.00
6:53 am 06:53 Cloudy 59 15 50 10 72 72 E 9 15 29.96 1015 10 16 0.00 0.00
7:53 am 07:53 Cloudy 59 15 50 10 72 72 ENE 9 15 29.94 1014 10 16 0.00 0.00
8:53 am 08:53 Mostly Cloudy 59 15 51 10.6 75 75 ENE 10 17 29.95 1014 10 16 0.00 0.00
9:53 am 09:53 Cloudy with Light Rain 59 15 53 11.7 81 81 ESE 3 6 29.99 1016 4 6 0.04 1.02
10:53 am 10:53 Cloudy with Light Rain 59 15 55 12.8 87 87 E 3 6 30.01 1016 4 6 0.08 2.03
11:53 am 11:53 Cloudy with Light Rain 59 15 56 13.3 90 90 E 9 15 29.97 1015 4 6 0.07 1.78
12:53 pm 12:53 Cloudy with Light Rain 60 15.6 57 13.9 90 90 E 9 15 29.96 1015 5 8 0.05 1.27
1:34 pm 13:34 Cloudy 61 16.1 57 13.9 87 87 ESE 6 9 29.97 1015 7 11 0.01 0.25
1:50 pm 13:50 Cloudy 61 16 57 14 88 88 VRB 3 6 29.97 1015 7 11 0.01 0.25
1:53 pm 13:53 Cloudy 61 16.1 58 14.4 90 90 Calm 29.96 1015 7 11 0.01 0.25
2:13 pm 14:13 Cloudy with Light Rain 61 16.1 58 14.4 90 90 SE 3 6 29.97 1015 7 11 0.00 0.03
2:23 pm 14:23 Cloudy with Light Rain 61 16.1 58 14.4 90 90 SE 6 9 29.97 1015 4 6 0.01 0.25
2:30 pm 14:30 Cloudy with Light Rain 62 16.7 58 14.4 86 86 Calm 29.97 1015 3 5 0.02 0.51
2:38 pm 14:38 Cloudy with Light Rain 62 16.7 58 14.4 86 86 Calm 29.97 1015 5 8 0.02 0.51
2:53 pm 14:53 Cloudy with Light Rain 62 16.7 58 14.4 86 86 E 6 9 29.95 1014 8 13 0.02 0.51
3:07 pm 15:07 Cloudy with Rain 62 16.7 58 14.4 86 86 Calm 29.97 1015 3 5 0.03 0.76
3:23 pm 15:23 Cloudy with Light Rain 62 16.7 58 14.4 86 86 E 3 6 29.94 1014 5 8 0.05 1.27
3:43 pm 15:43 Mostly Cloudy 63 17.2 59 15 87 87 ESE 8 13 29.94 1014 9 14 0.05 1.27
3:53 pm 15:53 Mostly Cloudy 63 17.2 59 15 87 87 ESE 9 15 29.91 1013 10 16 0.05 1.27
4:03 pm 16:03 Mostly Cloudy 63 17.2 59 15 87 87 SE 13 20 29.91 1013 10 16 0.00 0.00
4:24 pm 16:24 Cloudy 64 17.8 59 15 84 84 SE 12 19 29.88 1012 10 16 0.00 0.00
4:53 pm 16:53 Mostly Cloudy 64 17.8 59 15 84 84 SE 12 19 29.87 1012 10 16 0.00 0.00
5:53 pm 17:53 Cloudy 65 18.3 59 15 81 81 SE 9 15 29.88 1012 10 16 0.00 0.00
6:53 pm 18:53 Cloudy with Light Rain 64 17.8 60 15.6 87 87 Calm 29.90 1013 8 13 0.01 0.25
7:14 pm 19:14 Mostly Cloudy 64 17.8 60 15.6 87 87 SE 3 6 29.91 1013 10 16 0.00 0.03
7:53 pm 19:53 Cloudy with Light Rain 64 17.8 60 15.6 87 87 Calm 29.91 1013 8 13 0.01 0.25
8:53 pm 20:53 Cloudy with Light Rain 63 17.2 60 15.6 90 90 SE 5 7 29.90 1013 7 11 0.04 1.02
9:53 pm 21:53 Cloudy with Light Rain 63 17.2 60 15.6 90 90 SE 6 9 29.90 1013 10 16 0.02 0.51
10:53 pm 22:53 Cloudy with Light Rain 63 17.2 60 15.6 90 90 SSE 7 11 29.90 1013 10 16 0.01 0.25
11:53 pm 23:53 Cloudy with Light Rain 63 17.2 60 15.6 90 90 S 7 11 29.91 1013 6 10 0.07 1.78

Powered by AerisWeather